Weather History for KDMA - January, 2013

Change the Weather History Date:

Sunday, January 27, 2013

  Actual Average Record
Temperature  
Mean Temperature 56 °F -  
Max Temperature 64 °F 66 °F 86 °F (1987)
Min Temperature 49 °F 42 °F 29 °F (1979)
Degree Days  
Heating Degree Days 8    
Growing Degree Days 6 (Base 50)    
Moisture  
Dew Point 48 °F    
Average Humidity 76    
Maximum Humidity 100    
Minimum Humidity 49    
Precipitation  
Precipitation 0.00 in - - ()
Sea Level Pressure  
Sea Level Pressure 29.93 in    
Wind  
Wind Speed 5 mph (South)    
Max Wind Speed 13 mph    
Max Gust Speed -    
Visibility 10 miles    
Events      
Averages and records for this station are not official NWS values.
T = Trace of Precipitation, MM = Missing Value Source: NWS Daily Summary

Daily Weather History Graph

Daily Weather History Graph

Search for Another Location

Airport or City:

Trip Planner

Search our weather history database for the weather conditions in past years. The results will help you decide how hot, cold, wet, or windy it might be!

Date:

Astronomy

Jan. 27, 2013 Rise Set
Actual Time 7:20 AM MST 5:52 PM MST
Civil Twilight 6:54 AM MST 6:18 PM MST
Nautical Twilight 6:24 AM MST 6:48 PM MST
Astronomical Twilight 5:55 AM MST 7:17 PM MST
Moon 6:44 PM MST (1/27) 7:20 AM MST (1/27)
Length of Visible Light 11h 24m
Length of Day
10h 32m
Full, 100% of the Moon is Illuminated
Jan 27
Full
Feb 3
Last Quarter
Feb 10
New
Feb 17
First Quarter
Feb 25
Full

Hourly Weather History & Observations

Time (MST) Temp. Dew Point Humidity Pressure Visibility Wind Dir Wind Speed Gust Speed Precip Events Conditions
12:58 AM 53.8 °F 53.8 °F 100% 29.96 in 10.0 mi South 2.3 mph - N/A   Scattered Clouds
1:58 AM 52.5 °F 52.5 °F 100% 29.95 in 10.0 mi South 3.5 mph - N/A   Clear
2:58 AM 51.8 °F 51.8 °F 100% 29.94 in 10.0 mi ESE 5.8 mph - N/A   Scattered Clouds
3:58 AM 51.6 °F 51.6 °F 100% 29.94 in 10.0 mi SE 5.8 mph - N/A   Clear
4:58 AM 50.4 °F 50.4 °F 100% 29.95 in 10.0 mi SE 3.5 mph - N/A   Clear
5:58 AM 50.4 °F 50.4 °F 100% 29.94 in 10.0 mi Calm Calm - N/A   Clear
6:58 AM 49.5 °F 49.5 °F 100% 29.97 in 10.0 mi South 3.5 mph - N/A   Scattered Clouds
7:58 AM 49.8 °F 49.8 °F 100% 29.97 in 10.0 mi SE 6.9 mph - N/A   Scattered Clouds
8:58 AM 53.2 °F 50.9 °F 92% 29.99 in 10.0 mi SE 5.8 mph - N/A   Clear
9:58 AM 56.8 °F 49.6 °F 77% 29.98 in 10.0 mi SSE 3.5 mph - N/A   Overcast
10:58 AM 59.0 °F 48.9 °F 69% 29.98 in 10.0 mi ESE 2.3 mph - N/A   Scattered Clouds
11:58 AM 62.1 °F 48.0 °F 60% 29.96 in 10.0 mi Variable 1.2 mph - N/A   Scattered Clouds
12:58 PM 62.8 °F 47.1 °F 57% 29.93 in 10.0 mi SSW 6.9 mph - N/A   Scattered Clouds
1:58 PM 64.0 °F 44.8 °F 50% 29.91 in 10.0 mi South 11.5 mph - N/A   Partly Cloudy
2:58 PM 64.6 °F 45.5 °F 50% 29.90 in 10.0 mi West 4.6 mph - N/A   Scattered Clouds
3:58 PM 64.6 °F 45.0 °F 49% 29.89 in 10.0 mi WSW 12.7 mph - N/A   Scattered Clouds
4:58 PM 63.9 °F 45.1 °F 51% 29.88 in 10.0 mi West 10.4 mph - N/A   Mostly Cloudy
5:58 PM 62.4 °F 45.1 °F 53% 29.89 in 10.0 mi SSW 6.9 mph - N/A   Mostly Cloudy
6:58 PM 60.8 °F 45.5 °F 57% 29.90 in 10.0 mi SSW 5.8 mph - N/A   Overcast
7:58 PM 59.7 °F 46.0 °F 61% 29.91 in 10.0 mi SW 6.9 mph - N/A   Mostly Cloudy
8:58 PM 58.5 °F 46.9 °F 66% 29.90 in 10.0 mi SW 6.9 mph - N/A   Mostly Cloudy
9:58 PM 57.6 °F 47.7 °F 70% 29.90 in 10.0 mi WSW 8.1 mph - N/A   Mostly Cloudy
10:58 PM 55.4 °F 48.0 °F 76% 29.90 in 10.0 mi SSW 3.5 mph - N/A   Mostly Cloudy
11:58 PM 56.1 °F 48.0 °F 74% 29.90 in 10.0 mi Calm Calm - N/A   Scattered Clouds